Regional Weather Roundup
Issued by NWS Wakefield, VA

Home | Current Version | Previous Version | Graphics & Text | Print | Product List | Glossary On
Versions: 1 2 3 4 5 6 7 8 9 10 11 12 13 14 15 16 17 18 19 20 21 22 23 24 25 26 27 28 29 30 31 32 33 34 35 36 37 38 39 40 41 42 43 44 45 46 47 48 49 50
000
ASUS41 KAKQ 292210
RWRAKQ

REGIONAL WEATHER ROUNDUP
NATIONAL WEATHER SERVICE WAKEFIELD VA
600 PM EDT MON SEP 29 2014

Note: "fair" indicates few or no clouds below 12,000 feet with no
significant weather and/or obstructions to visibility. * = Denotes
station may not report precipitation (e.g., rain,snow,etc.),
thunder or fog.

VAZ042-051-052>054-056-292300-
NORTHERN VIRGINIA

CITY           SKY/WX    TMP DP  RH WIND       PRES   REMARKS
WASH NATIONAL  CLOUDY    73  62  68 S6        29.94S
DULLES         CLOUDY    68  62  81 CALM      29.95S
FORT BELVOIR   CLOUDY    68  63  82 VRB1      30.00S
QUANTICO       CLOUDY    70  63  78 SE8       29.94F
FREDERICKSBRG* CLOUDY    71  64  77 S3        29.94R
STAFFORD*      CLOUDY    67  67 100 CALM      29.98S
WARRENTON      CLOUDY    70  68  92 CALM      29.94R
CULPEPER*      CLOUDY    70  63  78 CALM      29.95S
MANASSAS*      NOT AVBL
LEESBURG*      CLOUDY    72  66  83 S5        29.95S
WINCHESTER     CLOUDY    72  59  64 S5        29.94S
FRONT ROYAL*   CLOUDY    72  61  68 CALM      29.93S
LURAY*         CLOUDY    75  61  60 CALM      29.94F
$$

VAZ048-049-060>072-079>083-292300-
CENTRAL AND SOUTH CENTRAL VIRGINIA...AND NORTH CENTRAL NORTH CAROLINA

CITY           SKY/WX    TMP DP  RH WIND       PRES   REMARKS
RICHMOND       LGT RAIN  69  64  84 S3        29.96S
CHESTERFIELD*  CLOUDY   N/A N/A N/A S5        29.97F
PETERSBURG*    LGT RAIN  66  64  94 CALM      29.97S
HANOVER        CLOUDY    67  65  93 CALM      29.97S
TAPPAHANNOCK*  CLOUDY    70  62  78 CALM      29.97R
CHARLOTTSVILLE CLOUDY    70  65  84 CALM      29.96R
ORANGE*        CLOUDY    68  64  88 CALM      29.97S
LOUISA*        CLOUDY    70  64  83 CALM      29.95R
FARMVILLE*     CLOUDY    68  66  94 CALM      29.95R
CREWE*         CLOUDY    67  63  89 CALM      29.96S
FORT PICKETT*  CLOUDY    67  64  91 SE3       29.97S
LUNENBURG*     CLOUDY    67  65  93 CALM      29.97S
SOUTH HILL*    DRIZZLE   66  66 100 CALM      30.02S
LAWRENCEVILLE* CLOUDY    65  64  97 CALM      29.96F
ROANOKE RAPIDS LGT RAIN  64  63  94 CALM      29.98S
RALEIGH        LGT RAIN  68  62  81 CALM      29.97F
$$

VAZ088>098-292300-
SOUTHEAST VIRGINIA

CITY           SKY/WX    TMP DP  RH WIND       PRES   REMARKS
NORFOLK        CLOUDY    72  61  68 N3        29.95S
VIRGINIA BEACH CLOUDY    73  63  70 NW6       29.95R
NORFOLK NAVAL  CLOUDY    72  63  73 NW6       29.96F
WEST POINT*    CLOUDY    70  65  85 CALM      29.97S
NEWPORT NEWS   LGT RAIN  72  64  76 NW6       29.96S
LANGLEY AFB    CLOUDY    70  65  85 NW5       29.96F
FORT EUSTIS    CLOUDY    68  68 100 W2        29.95S
WILLIAMSBURG*  CLOUDY    70  66  88 CALM      29.97F
HR EXEC AP*    CLOUDY    70  63  78 CALM      29.98S
FRANKLIN*      CLOUDY    66  64  94 CALM      29.98R
WAKEFIELD      LGT RAIN  68  64  87 W3        29.97S
$$

VAZ020-022-025-037-045-292300-
WEST CENTRAL AND SOUTHWEST VIRGINIA

CITY           SKY/WX    TMP DP  RH WIND       PRES   REMARKS
STAUNTON*      CLOUDY    74  54  50 E3        29.97F
HOT SPRINGS VA MOSUNNY   60  47  62 CALM      30.07S
LYNCHBURG      CLOUDY    68  65  90 S5        29.98S
DANVILLE       CLOUDY    68  64  87 SW5       29.97S
SOUTH BOSTON*  NOT AVBL
MARTINSVILLE   CLOUDY    70  68  94 CALM      30.00S
ROANOKE        PTSUNNY   74  60  61 SE5       29.98S
BLACKSBURG     PTSUNNY   72  63  73 SW3       30.02S
DUBLIN*        PTSUNNY   72  63  72 S3        30.01S
MARION*        PTSUNNY   70  59  69 SW5       30.04S
HILLSVILLE*    MOSUNNY   67  58  72 CALM      30.03S
RICHLANDS*     PTCLDY    73  57  56 NW3       30.03S
WISE*          PTSUNNY   72  54  53 CALM      30.04R
ABINGDON*      SUNNY     75  58  56 W3        30.00F
$$

MDZ021>025-VAZ099-100-292300-
SOUTHERN MARYLAND AND THE DELMARVA PENINSULA

CITY           SKY/WX    TMP DP  RH WIND       PRES   REMARKS
PATUXENT RIVER CLOUDY    68  62  81 CALM      29.94F
BAY BRIDGE APT DRIZZLE   68  66  94 S7        29.94S
LEONARDTOWN    CLOUDY    64  63  94 W3        29.96F
DOVER          LGT RAIN  70  65  82 SW5       29.92S
GEORGETOWN     CLOUDY    72  61  68 S7        29.95S
EASTON         LGT RAIN  70  70 100 CALM      29.98S
CAMBRIDGE      CLOUDY    72  68  88 CALM      29.94S
SALISBURY      CLOUDY    72  65  78 W3        29.95R
OCEAN CITY     CLOUDY    71  64  78 S3        29.94S
WALLOPS ISLAND LGT RAIN  72  65  78 NW3       29.95S
ACCOMACK*      LGT RAIN  70  63  78 NW5       29.95S
$$

NCZ012>017-030>032-292300-
EASTERN NORTH CAROLINA

CITY           SKY/WX    TMP DP  RH WIND       PRES   REMARKS
ELIZABETH CITY CLOUDY    72  65  78 NE5       29.95R
AHOSKIE*       LGT RAIN  66  63  91 CALM      29.98S
EDENTON*       CLOUDY    72  64  75 NW3       29.96R
CURRITUCK*     CLOUDY    72  61  68 NE3       29.95F
KILL DEVIL HLS CLOUDY    70  63  78 CALM      29.95R
MANTEO         CLOUDY    70  62  76 N8        29.95S
CAPE HATTERAS  CLOUDY    70  66  87 NE7       29.94R
TARBORO*       LGT RAIN  68  64  88 CALM      29.98F
GOLDSBORO      CLOUDY    68  68  98 CALM      29.96S
WASHINGTON     CLOUDY    70  65  83 N3        29.97R
GREENVILLE     CLOUDY    70  64  83 CALM      29.99S
NEW BERN       CLOUDY    74  64  71 N5        29.96S
WILMINGTON     LGT RAIN  70  68  93 N3        29.96S
$$

VAZ048-292300-
ELSEWHERE

CITY           SKY/WX    TMP DP  RH WIND       PRES   REMARKS
HARRISBURG PA  CLOUDY    73  60  63 S3        29.91S
BALTIMORE      CLOUDY    69  64  84 CALM      29.94R
ANNAPOLIS        N/A     69  65  86 S3        29.94R
ANDREWS AFB    CLOUDY    70  64  82 SW7       29.95R
WILMINGTON DE  LGT RAIN  68  64  87 S5        29.94R
PHILADELPHIA   LGT RAIN  71  64  78 S9        29.94R
WILDWOOD NJ*   CLOUDY    72  61  68 S3        29.95R
ATLANTIC CITY  CLOUDY    72  63  73 W6        29.93S
HENDERSON NC   LGT RAIN  67  63  87 CALM      29.97S
GREENSBORO     PTSUNNY   67  63  87 W5        29.98S
ROCKY MOUNT    LGT RAIN  66  65  96 CALM      29.98S FOG
FAYETTEVILLE   LGT RAIN  67  65  93 E3        29.96S
CHARLOTTE      CLOUDY    69  62  78 N5        29.99S
$$

VAZ100-292300-
MARINE

STATION/POSITION TIME  TEMP    WIND        PRES    WAVE   SWELL
                       AIR SEA DIR/SP/G            HT/PER HT/PER
                 (UTC) (F)     (DEG/KT/KT) (MB)    (FT/S) (FT/S)
44066 TX TWR #4  2200   69 70  210/  8/ 10 1013.8F   2/ 8   2/ 8
CAPE MAY NJ      2200   70 73  190/  3/  4 1013.3S
LEWES DE         2200   72 71  180/  4/  5 1013.7R
15NM E FENWICK I 2200   70 72              1013.6S   2/ 8
OCEAN-CITY-INLET 2200   71 72  200/  5/  7 1013.7S
WACHAPREAGUE VA  2200   71 74  290/  1/  4 1014.2R
THOMAS POINT MD  2200   69 71  200/ 12/ 13 1014.8R
GOOSES REEF MD   2200   69     240/  8/  8 1014.5R
COVE POINT MD    2200   67     210/  4/  5 1013.9R
SOLOMONS ISLAND  2200      72                N/A
BISHOPS HEAD MD  2200   69 72  270/  5/  5 1013.6F
PINEY POINT MD   2200          280/  4/  4   N/A
POTOMAC MD       2200   69     290/  4/  6 1013.3F
CAMBRIDGE MD     2200   69 71  230/  5/  7 1013.8S
LEWISETTA VA     2200   69 71  220/  4/  5 1013.9R
RAPPAHANNOCK LGT 2200          320/  4/  4 1014.7F
STINGRAY PT      2200   70     290/  4/  6   N/A
YORK RVR RNG VA  2200   70     290/  5/  6 1014.0R
YORKTOWN VA      2200   70 73  280/  5/  5 1014.2S
JAMESTOWN VA     2200   67     220/  2/  2   N/A
DOMINION TERM VA 2200   70     330/  6/  7 1014.4S
KIPTOPEKE VA     2200      76   10/  5/  6   N/A
CHES BAY BRIDGE  2200   71 72  320/  9/  9 1013.8S
CHESAPEAKE LGHT  2100   71     330/  2/  3 1015.0F
WILLOUBY STN VA  2200   71     350/  3/  4 1013.0F
S CRANEY ISL VA  2200          300/  4/  6 1013.9F
CAPE HENRY BUOY  2200      73                N/A     2/ 8
1ST LANDING BUOY 2200   72      10/  6/  8 1014.0R
CAPE CHARLES BUO 2200      72                N/A     2/ 8   2/ 8
OFFSHORE WE BUOY 2200      73                N/A     2/ 8   2/ 8
64NM E OF VA BCH 2200   71 72   20/  8/ 10 1013.5S   3/ 7   2/ 7
DUCK PIER NC     2200   71 73   30/ 10/ 11 1013.2R
44100 DUCK FRF   2200      72                N/A     3/ 8
44056 DUCK FRF   2200                        N/A     2/ 7
OREGON INLET NC  2200   71 73  350/  6/ 11 1013.9F
HATTERAS NC      2200   72 76   20/ 11/ 14 1014.1R
DIAMOND SHLS NC  2200   75      10/ 12/ 14 1013.1S   3/ 7   2/ 7
CAPE LOOKOUT NC  2100   74      10/  8/ 10 1013.4F
$$


USA.gov is the U.S. government's official web portal to all federal, state and local government web resources and services.